Location: Observatoire
(46.1952°N, 5.3391°E)
Time: 19:34:38
(UTC+01:00)

Courier 1B - Pass Details

Date: 18 February 2026
Orbit: 962 x 1208 km, 28.3° (Epoch: 6 March)

Event Time Altitude Azimuth Distance (km) Brightness Sun altitude
Rises 21:45:44 0° 237° (WSW) 3,956 11.0 -37.4°
Reaches altitude 10° 21:49:20 10° 221° (SW) 3,038 10.2 -38.0°
Enters shadow 21:50:10 12° 215° (SW) 2,868 10.0 -38.1°
